Miscellaneous Local Product
Issued by NWS Hastings, NE

Home | Current Version | Previous Version | Text Only | Print | Product List | Glossary Off
Versions: 1 2 3 4 5 6 7 8 9 10 11 12 13 14 15 16 17 18 19 20 21 22 23 24 25 26 27 28 29 30 31 32 33 34 35 36 37 38 39 40 41 42 43 44 45 46 47 48 49 50

470
AXUS43 KGID 221302
MISGRI

GID CWA HOURLY WEATHER ROUNDUP
NATIONAL WEATHER SERVICE HASTINGS NE
800 AM CDT MON MAY 22 2017

NOTE: "FAIR" INDICATES FEW OR NO CLOUDS BELOW 12,000 FEET WITH NO
SIGNIFICANT WEATHER AND/OR OBSTRUCTIONS TO VISIBILITY.

...SOUTH CENTRAL NEBRASKA...

CITY           SKY/WX    TMP DP  RH WIND       PRES   REMARKS
GRAND ISLAND   PTSUNNY   54  48  80 W10       30.02F
HASTINGS       CLOUDY    54  47  77 W12       30.03F
KEARNEY        MOSUNNY   55  45  67 W8        30.04S
ORD            SUNNY     50  44  80 W6        30.00F
YORK           PTSUNNY   54  50  87 W9        30.01S
AURORA         CLOUDY    56  49  78 W10       30.01S
LEXINGTON      SUNNY     53  47  81 NW8       30.05F
HOLDREGE       MOSUNNY   55  47  74 W6        30.05S
HEBRON         LGT RAIN  57  54  88 W6        30.03R

...NEBRASKA PANHANDLE...

CITY           SKY/WX    TMP DP  RH WIND       PRES   REMARKS
CHADRON        CLOUDY    43  39  86 W7        30.07R
ALLIANCE       SUNNY     42  39  89 W8        30.06S
SCOTTSBLUFF    SUNNY     44  32  62 NW7       30.11S
SIDNEY         SUNNY     44  39  82 W10       30.12S

...WESTERN AND NORTH CENTRAL NEBRASKA...

CITY           SKY/WX    TMP DP  RH WIND       PRES   REMARKS
VALENTINE      SUNNY     50  41  71 W10       30.00S
AINSWORTH      SUNNY     50  44  79 W12       29.99S
ONEILL         SUNNY     53  43  70 W7        29.97F
BROKEN BOW     SUNNY     50  43  77 W6        30.03S
IMPERIAL       CLOUDY    49  45  86 W9        30.10S
NORTH PLATTE   SUNNY     49  46  90 W8        30.07S
MCCOOK         PTSUNNY   52  48  86 NW10      30.07S

...EASTERN NEBRASKA...

CITY           SKY/WX    TMP DP  RH WIND       PRES   REMARKS
NORFOLK        SUNNY     54  44  69 W12       29.95F
SO SIOUX CITY  SUNNY     56  48  74 NW9       29.93F
TEKAMAH        PTSUNNY   55  47  74 SW7       29.94F
COLUMBUS       CLOUDY    54  45  71 MISG      29.99S
ALBION         SUNNY     54  45  72 W7        29.99S
OMAHA EPPLEY   CLOUDY    60  49  66 SW5       29.96F
MILLARD        MOSUNNY   60  51  71 W5        29.97S
LINCOLN        CLOUDY    58  50  75 W6        30.00S
NEBRASKA CITY  RAIN      57  51  79 SW9       29.99F
BEATRICE       CLOUDY    59  55  85 SW8       30.01F
FALLS CITY     CLOUDY    56  51  84 SW7       30.02S

...NORTHERN KANSAS...

CITY           SKY/WX    TMP DP  RH WIND       PRES   REMARKS
GOODLAND       CLOUDY    50  49  96 W6        30.11F
HILL CITY      CLOUDY    56  54  93 W5        30.08R
NORTON         CLOUDY    54  46  76 W10       30.05R
PHILLIPSBURG   CLOUDY    55  55 100 SW6       30.05R
SMITH CENTER   CLOUDY    54  54 100 S3        30.04F
HAYS           CLOUDY    54  52  93 S5        30.06F
RUSSELL        CLOUDY    54  51  90 S7        30.05F
CONCORDIA      PTSUNNY   59  54  83 SW10      30.03F
SALINA         LGT RAIN  57  54  89 S6        30.08S
TOPEKA         PTSUNNY   60  54  80 S6        30.06F



USA.gov is the U.S. government's official web portal to all federal, state and local government web resources and services.